Location: Winthrop
(48.4780°N, 120.1850°W)
Time: 04:03:38
(UTC-07:00)

deb Explorer IX - Pass Details

Date: 12 February 2023
Orbit: 536 x 1029 km, 38.8° (Epoch: 27 March)

Event Time Altitude Azimuth Distance (km) Brightness Sun altitude
Rises 22:16:41 0° 195° (SSW) 3,586 - -47.3°
Maximum altitude 22:23:01 10° 149° (SSE) 2,479 - -48.0°
Drops below altitude 10° 22:25:07 - 129° (SE) 2,550 - -48.2°
Sets 22:28:49 0° 102° (ESE) 3,222 - -48.7°
